Weather in Madmas

Russia / Komi Republic     62°01′40″N   49°19′09″E
temp.,
°C
wind,
m/s
gust,
m/s
humid.,
%
clouds,
%
prec.,
mm/h
press.,
hPa
HPBL,
m
15 august, mon
mon1500:00+10sw117145 0.0 102310
03:00+9sw227477 0.0 102325
06:00+13sw2764100 0.0 1023175
09:00+15wsw2857100 0.0 1023335
12:00+19wsw364727 0.0 1023688
15:00+24wnw483669 0.0 10212589
18:00+20n265389 0.0 1022256
21:00+14n22645 0.0 102419
16 august, tue
tue1600:00+11ene11800 0.0 102510
03:00+10wsw00846 0.0 102610
06:00+13sw1171100 0.0 102662
09:00+20sw1150100 0.0 1027452
12:00+23sw1239100 0.0 10261279
15:00+23wsw134194 0.0 10251452
18:00+21ssw225899 0.0 102444
21:00+17w117458 0.0 102515
17 august, wed
wed1700:00+13w118694 0.3 102515
03:00+13sw229268 0.5 102540
06:00+15wsw129497 0.6 102453
09:00+20wsw127586 0.6 1024289
12:00+27wnw124413 0.0 10231381
15:00+28w133776 0.0 10222380
18:00+22w2366100 0.0 102263
21:00+19w127298 0.0 102222
18 august, thu
thu1800:00+19wnw117450 0.0 102218
03:00+17w117997 0.0 102218
06:00+19w13766 0.0 102394
09:00+25wnw12525 0.0 1023607
12:00+29wnw123849 0.0 10222425
15:00+28wnw124059 0.0 10222296
18:00+23n016096 0.0 102312
21:00+21w116549 0.0 102311
19 august, fri
fri1900:00+17wsw117811 0.0 102411
03:00+16w11848 0.0 102514
06:00+19wsw12736 0.0 102580
09:00+25w23517 0.0 1026576
12:00+23wnw245593 0.0 1026586
15:00+27wnw233615 0.0 1025960
18:00+24wsw24541 0.0 102581
21:00+18w22684 0.0 102614